Wetterdaten: Dienstag, 02.09.2014
Datum Zeit Temp. I. Temp. A. Boden 5 cm Feuchte A. Sonne Luftdruck Regen Wind Sonnenschein
02.09.2014 00:00 22,5 C 13,4 C 13,8 C 91 % 0 % 1022 hPa 0,0 l/m 6,8 km/h (2 Bft) 0 min
02.09.2014 00:03 22,5 C 13,4 C 13,8 C 91 % 0 % 1022 hPa 0,0 l/m 6,8 km/h (2 Bft) 0 min
02.09.2014 00:06 22,4 C 13,4 C 13,9 C 91 % 0 % 1022 hPa 0,0 l/m 6,8 km/h (2 Bft) 0 min
02.09.2014 00:09 22,4 C 13,4 C 13,9 C 91 % 0 % 1022 hPa 0,0 l/m 6,8 km/h (2 Bft) 0 min
02.09.2014 00:12 22,4 C 13,4 C 13,7 C 91 % 0 % 1022 hPa 0,0 l/m 6,8 km/h (2 Bft) 0 min
02.09.2014 00:15 22,4 C 13,4 C 13,7 C 91 % 0 % 1022 hPa 0,0 l/m 6,8 km/h (2 Bft) 0 min
02.09.2014 00:18 22,4 C 13,4 C 13,7 C 91 % 0 % 1022 hPa 0,0 l/m 6,8 km/h (2 Bft) 0 min
02.09.2014 00:21 22,4 C 13,4 C 13,8 C 91 % 0 % 1022 hPa 0,0 l/m 6,8 km/h (2 Bft) 0 min
02.09.2014 00:24 22,4 C 13,4 C 13,8 C 91 % 0 % 1022 hPa 0,0 l/m 6,8 km/h (2 Bft) 0 min
02.09.2014 00:27 22,4 C 13,4 C 13,9 C 90 % 0 % 1022 hPa 0,0 l/m 6,7 km/h (2 Bft) 0 min
02.09.2014 00:30 22,4 C 13,4 C 13,8 C 90 % 0 % 1022 hPa 0,0 l/m 4,8 km/h (1 Bft) 0 min
02.09.2014 00:33 22,4 C 13,4 C 13,8 C 90 % 0 % 1022 hPa 0,0 l/m 4,8 km/h (1 Bft) 0 min
02.09.2014 00:36 22,4 C 13,3 C 13,7 C 90 % 0 % 1022 hPa 0,0 l/m 7,6 km/h (2 Bft) 0 min
02.09.2014 00:39 22,4 C 13,3 C 13,8 C 90 % 0 % 1022 hPa 0,0 l/m 6,4 km/h (2 Bft) 0 min
02.09.2014 00:42 22,4 C 13,3 C 13,7 C 90 % 0 % 1022 hPa 0,0 l/m 6,4 km/h (2 Bft) 0 min
02.09.2014 00:45 22,4 C 13,3 C 13,7 C 90 % 0 % 1022 hPa 0,0 l/m 6,4 km/h (2 Bft) 0 min
02.09.2014 00:48 22,4 C 13,3 C 13,8 C 90 % 0 % 1022 hPa 0,0 l/m 9,0 km/h (2 Bft) 0 min
02.09.2014 00:51 22,4 C 13,3 C 13,7 C 90 % 0 % 1022 hPa 0,0 l/m 7,1 km/h (2 Bft) 0 min
02.09.2014 00:54 22,4 C 13,3 C 13,6 C 90 % 0 % 1022 hPa 0,0 l/m 7,1 km/h (2 Bft) 0 min
02.09.2014 00:57 22,4 C 13,3 C 13,6 C 90 % 0 % 1022 hPa 0,0 l/m 7,5 km/h (2 Bft) 0 min
02.09.2014 01:00 22,4 C 13,2 C 13,6 C 90 % 0 % 1022 hPa 0,0 l/m 3,4 km/h (1 Bft) 0 min
02.09.2014 01:03 22,4 C 13,2 C 13,6 C 90 % 0 % 1022 hPa 0,0 l/m 3,4 km/h (1 Bft) 0 min
02.09.2014 01:06 22,4 C 13,2 C 13,6 C 90 % 0 % 1022 hPa 0,0 l/m 6,5 km/h (2 Bft) 0 min
02.09.2014 01:09 22,4 C 13,2 C 13,7 C 90 % 0 % 1022 hPa 0,0 l/m 7,3 km/h (2 Bft) 0 min
02.09.2014 01:12 22,4 C 13,2 C 13,7 C 90 % 0 % 1022 hPa 0,0 l/m 5,7 km/h (1 Bft) 0 min
02.09.2014 01:15 22,4 C 13,2 C 13,6 C 90 % 0 % 1022 hPa 0,0 l/m 7,2 km/h (2 Bft) 0 min
02.09.2014 01:18 22,4 C 13,2 C 13,6 C 90 % 0 % 1022 hPa 0,0 l/m 5,3 km/h (1 Bft) 0 min
02.09.2014 01:21 22,4 C 13,2 C 13,7 C 90 % 0 % 1022 hPa 0,0 l/m 7,9 km/h (2 Bft) 0 min
02.09.2014 01:24 22,4 C 13,2 C 13,6 C 90 % 0 % 1022 hPa 0,0 l/m 7,9 km/h (2 Bft) 0 min
02.09.2014 01:27 22,4 C 13,2 C 13,6 C 90 % 0 % 1022 hPa 0,0 l/m 3,1 km/h (1 Bft) 0 min
02.09.2014 01:30 22,4 C 13,2 C 13,6 C 90 % 0 % 1022 hPa 0,0 l/m 0,9 km/h (0 Bft) 0 min
02.09.2014 01:33 22,3 C 13,2 C 13,6 C 90 % 0 % 1022 hPa 0,0 l/m 0,9 km/h (0 Bft) 0 min
02.09.2014 01:36 22,4 C 13,1 C 13,5 C 90 % 0 % 1022 hPa 0,0 l/m 1,0 km/h (0 Bft) 0 min
02.09.2014 01:39 22,3 C 13,1 C 13,5 C 90 % 0 % 1022 hPa 0,0 l/m 2,1 km/h (1 Bft) 0 min
02.09.2014 01:42 22,3 C 13,1 C 13,6 C 90 % 0 % 1022 hPa 0,0 l/m 0,6 km/h (0 Bft) 0 min
02.09.2014 01:45 22,4 C 13,2 C 13,6 C 90 % 0 % 1022 hPa 0,0 l/m 0,3 km/h (0 Bft) 0 min
02.09.2014 01:48 22,4 C 13,1 C 13,6 C 90 % 0 % 1022 hPa 0,0 l/m 0,0 km/h (0 Bft) 0 min
02.09.2014 01:51 22,3 C 13,1 C 13,6 C 90 % 0 % 1022 hPa 0,0 l/m 0,0 km/h (0 Bft) 0 min
02.09.2014 01:54 22,3 C 13,1 C 13,6 C 90 % 0 % 1022 hPa 0,0 l/m 0,7 km/h (0 Bft) 0 min
02.09.2014 01:57 22,3 C 13,1 C 13,6 C 90 % 0 % 1022 hPa 0,0 l/m 0,1 km/h (0 Bft) 0 min
02.09.2014 02:00 22,4 C 13,1 C 13,5 C 90 % 0 % 1022 hPa 0,0 l/m 0,1 km/h (0 Bft) 0 min
02.09.2014 02:03 22,4 C 13,1 C 13,5 C 90 % 0 % 1022 hPa 0,0 l/m 0,1 km/h (0 Bft) 0 min
02.09.2014 02:06 22,3 C 13,1 C 13,5 C 90 % 0 % 1022 hPa 0,0 l/m 0,1 km/h (0 Bft) 0 min
02.09.2014 02:09 22,3 C 13,1 C 13,6 C 90 % 0 % 1021 hPa 0,0 l/m 0,3 km/h (0 Bft) 0 min
02.09.2014 02:12 22,3 C 13,0 C 13,5 C 90 % 0 % 1021 hPa 0,0 l/m 6,5 km/h (2 Bft) 0 min
02.09.2014 02:15 22,3 C 13,1 C 13,5 C 90 % 0 % 1021 hPa 0,0 l/m 6,4 km/h (2 Bft) 0 min
02.09.2014 02:18 22,3 C 13,1 C 13,5 C 90 % 0 % 1021 hPa 0,0 l/m 4,2 km/h (1 Bft) 0 min
02.09.2014 02:21 22,3 C 13,1 C 13,5 C 90 % 0 % 1021 hPa 0,0 l/m 4,2 km/h (1 Bft) 0 min
02.09.2014 02:24 22,3 C 13,0 C 13,5 C 90 % 0 % 1021 hPa 0,0 l/m 1,3 km/h (1 Bft) 0 min
02.09.2014 02:27 22,3 C 13,0 C 13,5 C 90 % 0 % 1021 hPa 0,0 l/m 1,3 km/h (1 Bft) 0 min
02.09.2014 02:30 22,3 C 13,0 C 13,5 C 90 % 0 % 1021 hPa 0,0 l/m 5,0 km/h (1 Bft) 0 min
02.09.2014 02:33 22,3 C 13,0 C 13,5 C 90 % 0 % 1021 hPa 0,0 l/m 5,0 km/h (1 Bft) 0 min
02.09.2014 02:36 22,3 C 13,0 C 13,5 C 90 % 0 % 1021 hPa 0,0 l/m 4,2 km/h (1 Bft) 0 min
02.09.2014 02:39 22,3 C 13,0 C 13,5 C 90 % 0 % 1021 hPa 0,0 l/m 0,6 km/h (0 Bft) 0 min
02.09.2014 02:42 22,3 C 13,0 C 13,4 C 90 % 0 % 1021 hPa 0,0 l/m 0,1 km/h (0 Bft) 0 min
02.09.2014 02:45 22,3 C 13,0 C 13,4 C 90 % 0 % 1021 hPa 0,0 l/m 0,1 km/h (0 Bft) 0 min
02.09.2014 02:48 22,3 C 13,0 C 13,5 C 90 % 0 % 1021 hPa 0,0 l/m 2,8 km/h (1 Bft) 0 min
02.09.2014 02:51 22,3 C 12,9 C 13,4 C 90 % 0 % 1021 hPa 0,0 l/m 2,8 km/h (1 Bft) 0 min
02.09.2014 02:54 22,3 C 12,9 C 13,4 C 90 % 0 % 1021 hPa 0,0 l/m 0,0 km/h (0 Bft) 0 min
02.09.2014 02:57 22,3 C 12,9 C 13,4 C 90 % 0 % 1021 hPa 0,0 l/m 0,0 km/h (0 Bft) 0 min
02.09.2014 03:00 22,3 C 12,9 C 13,5 C 90 % 0 % 1021 hPa 0,0 l/m 0,0 km/h (0 Bft) 0 min
02.09.2014 03:03 22,3 C 12,9 C 13,5 C 90 % 0 % 1021 hPa 0,0 l/m 0,0 km/h (0 Bft) 0 min
02.09.2014 03:06 22,3 C 13,0 C 13,3 C 90 % 0 % 1021 hPa 0,0 l/m 0,0 km/h (0 Bft) 0 min
02.09.2014 03:09 22,3 C 12,9 C 13,5 C 90 % 0 % 1021 hPa 0,0 l/m 0,0 km/h (0 Bft) 0 min
02.09.2014 03:12 22,3 C 12,9 C 13,3 C 90 % 0 % 1021 hPa 0,0 l/m 0,0 km/h (0 Bft) 0 min
02.09.2014 03:15 22,3 C 12,9 C 13,4 C 90 % 0 % 1021 hPa 0,0 l/m 0,0 km/h (0 Bft) 0 min
02.09.2014 03:18 22,2 C 12,9 C 13,3 C 91 % 0 % 1021 hPa 0,0 l/m 0,0 km/h (0 Bft) 0 min
02.09.2014 03:21 22,3 C 12,9 C 13,3 C 91 % 0 % 1021 hPa 0,0 l/m 0,0 km/h (0 Bft) 0 min
02.09.2014 03:24 22,2 C 12,9 C 13,4 C 91 % 0 % 1021 hPa 0,0 l/m 0,0 km/h (0 Bft) 0 min
02.09.2014 03:27 22,2 C 12,9 C 13,4 C 91 % 0 % 1021 hPa 0,0 l/m 0,0 km/h (0 Bft) 0 min
02.09.2014 03:30 22,3 C 12,9 C 13,4 C 91 % 0 % 1021 hPa 0,0 l/m 0,0 km/h (0 Bft) 0 min
02.09.2014 03:33 22,2 C 12,9 C 13,3 C 91 % 0 % 1021 hPa 0,0 l/m 0,0 km/h (0 Bft) 0 min
02.09.2014 03:36 22,2 C 12,8 C 13,3 C 91 % 0 % 1021 hPa 0,0 l/m 0,0 km/h (0 Bft) 0 min
02.09.2014 03:39 22,2 C 12,9 C 13,3 C 91 % 0 % 1021 hPa 0,0 l/m 0,0 km/h (0 Bft) 0 min
02.09.2014 03:42 22,2 C 12,9 C 13,3 C 91 % 0 % 1021 hPa 0,0 l/m 0,0 km/h (0 Bft) 0 min
02.09.2014 03:45 22,2 C 12,8 C 13,2 C 91 % 0 % 1021 hPa 0,0 l/m 0,0 km/h (0 Bft) 0 min
02.09.2014 03:48 22,2 C 12,8 C 13,3 C 91 % 0 % 1021 hPa 0,0 l/m 0,0 km/h (0 Bft) 0 min
02.09.2014 03:51 22,2 C 12,8 C 13,2 C 91 % 0 % 1021 hPa 0,0 l/m 0,0 km/h (0 Bft) 0 min
02.09.2014 03:54 22,2 C 12,8 C 13,2 C 91 % 0 % 1021 hPa 0,0 l/m 0,0 km/h (0 Bft) 0 min
02.09.2014 03:57 22,2 C 12,8 C 13,2 C 91 % 0 % 1021 hPa 0,0 l/m 0,0 km/h (0 Bft) 0 min
02.09.2014 04:00 22,2 C 12,8 C 13,2 C 91 % 0 % 1021 hPa 0,0 l/m 0,0 km/h (0 Bft) 0 min
02.09.2014 04:03 22,2 C 12,8 C 13,2 C 91 % 0 % 1021 hPa 0,0 l/m 0,0 km/h (0 Bft) 0 min
02.09.2014 04:06 22,2 C 12,8 C 13,2 C 91 % 0 % 1021 hPa 0,0 l/m 0,0 km/h (0 Bft) 0 min
02.09.2014 04:09 22,3 C 12,8 C 13,2 C 91 % 0 % 1021 hPa 0,0 l/m 0,0 km/h (0 Bft) 0 min
02.09.2014 04:12 22,2 C 12,7 C 13,2 C 91 % 0 % 1021 hPa 0,0 l/m 0,0 km/h (0 Bft) 0 min
02.09.2014 04:15 22,2 C 12,7 C 13,2 C 91 % 0 % 1021 hPa 0,0 l/m 0,0 km/h (0 Bft) 0 min
02.09.2014 04:18 22,2 C 12,7 C 13,1 C 91 % 0 % 1021 hPa 0,0 l/m 0,0 km/h (0 Bft) 0 min
02.09.2014 04:21 22,2 C 12,7 C 13,1 C 91 % 0 % 1021 hPa 0,0 l/m 0,0 km/h (0 Bft) 0 min
02.09.2014 04:24 22,2 C 12,7 C 13,1 C 91 % 0 % 1021 hPa 0,0 l/m 0,0 km/h (0 Bft) 0 min
02.09.2014 04:27 22,2 C 12,7 C 13,2 C 91 % 0 % 1021 hPa 0,0 l/m 0,0 km/h (0 Bft) 0 min
02.09.2014 04:30 22,2 C 12,7 C 13,2 C 91 % 0 % 1021 hPa 0,0 l/m 0,0 km/h (0 Bft) 0 min
02.09.2014 04:33 22,2 C 12,7 C 13,1 C 91 % 0 % 1021 hPa 0,0 l/m 0,0 km/h (0 Bft) 0 min
02.09.2014 04:36 22,2 C 12,7 C 13,1 C 91 % 0 % 1021 hPa 0,0 l/m 0,0 km/h (0 Bft) 0 min
02.09.2014 04:39 22,2 C 12,7 C 13,1 C 92 % 0 % 1021 hPa 0,0 l/m 0,0 km/h (0 Bft) 0 min
02.09.2014 04:42 22,2 C 12,7 C 13,0 C 92 % 0 % 1021 hPa 0,0 l/m 0,0 km/h (0 Bft) 0 min
02.09.2014 04:45 22,2 C 12,7 C 13,1 C 92 % 0 % 1021 hPa 0,0 l/m 0,0 km/h (0 Bft) 0 min
02.09.2014 04:48 22,2 C 12,7 C 13,2 C 92 % 0 % 1021 hPa 0,0 l/m 0,0 km/h (0 Bft) 0 min
02.09.2014 04:51 22,2 C 12,7 C 13,1 C 92 % 0 % 1021 hPa 0,0 l/m 0,0 km/h (0 Bft) 0 min
02.09.2014 04:54 22,2 C 12,7 C 13,1 C 92 % 0 % 1021 hPa 0,0 l/m 0,0 km/h (0 Bft) 0 min
02.09.2014 04:57 22,2 C 12,7 C 13,1 C 92 % 0 % 1021 hPa 0,0 l/m 0,0 km/h (0 Bft) 0 min
02.09.2014 05:00 22,2 C 12,7 C 13,1 C 92 % 0 % 1021 hPa 0,0 l/m 0,0 km/h (0 Bft) 0 min
02.09.2014 05:03 22,2 C 12,6 C 13,2 C 92 % 0 % 1021 hPa 0,0 l/m 0,0 km/h (0 Bft) 0 min
02.09.2014 05:06 22,2 C 12,6 C 13,2 C 92 % 0 % 1021 hPa 0,0 l/m 0,0 km/h (0 Bft) 0 min
02.09.2014 05:09 22,2 C 12,6 C 13,1 C 92 % 0 % 1021 hPa 0,0 l/m 0,0 km/h (0 Bft) 0 min
02.09.2014 05:12 22,2 C 12,6 C 13,2 C 92 % 0 % 1021 hPa 0,0 l/m 0,1 km/h (0 Bft) 0 min
02.09.2014 05:15 22,2 C 12,6 C 13,2 C 93 % 0 % 1021 hPa 0,0 l/m 0,0 km/h (0 Bft) 0 min
02.09.2014 05:18 22,2 C 12,6 C 13,2 C 93 % 0 % 1021 hPa 0,0 l/m 0,0 km/h (0 Bft) 0 min
02.09.2014 05:21 22,2 C 12,6 C 13,1 C 93 % 0 % 1021 hPa 0,0 l/m 0,3 km/h (0 Bft) 0 min
02.09.2014 05:24 22,2 C 12,6 C 13,2 C 93 % 0 % 1021 hPa 0,3 l/m 0,3 km/h (0 Bft) 0 min
02.09.2014 05:27 22,2 C 12,6 C 13,2 C 93 % 0 % 1021 hPa 0,0 l/m 0,0 km/h (0 Bft) 0 min
02.09.2014 05:30 22,2 C 12,6 C 13,1 C 93 % 0 % 1021 hPa 0,0 l/m 0,1 km/h (0 Bft) 0 min
02.09.2014 05:33 22,2 C 12,5 C 13,1 C 93 % 0 % 1021 hPa 0,0 l/m 0,1 km/h (0 Bft) 0 min
02.09.2014 05:36 22,2 C 12,6 C 13,1 C 93 % 0 % 1021 hPa 0,0 l/m 0,1 km/h (0 Bft) 0 min
02.09.2014 05:39 22,2 C 12,6 C 13,0 C 93 % 0 % 1021 hPa 0,0 l/m 0,0 km/h (0 Bft) 0 min
02.09.2014 05:42 22,2 C 12,6 C 13,0 C 93 % 0 % 1021 hPa 0,0 l/m 0,0 km/h (0 Bft) 0 min
02.09.2014 05:45 22,2 C 12,5 C 12,9 C 93 % 0 % 1021 hPa 0,0 l/m 0,0 km/h (0 Bft) 0 min
02.09.2014 05:48 22,2 C 12,6 C 13,0 C 93 % 0 % 1021 hPa 0,0 l/m 0,0 km/h (0 Bft) 0 min
02.09.2014 05:51 22,2 C 12,6 C 13,0 C 93 % 0 % 1021 hPa 0,0 l/m 0,0 km/h (0 Bft) 0 min
02.09.2014 05:54 22,2 C 12,5 C 12,9 C 93 % 0 % 1021 hPa 0,3 l/m 0,0 km/h (0 Bft) 0 min
02.09.2014 05:57 22,2 C 12,5 C 12,9 C 93 % 0 % 1021 hPa 0,0 l/m 0,0 km/h (0 Bft) 0 min
02.09.2014 06:00 22,2 C 12,5 C 12,9 C 93 % 0 % 1021 hPa 0,0 l/m 0,0 km/h (0 Bft) 0 min
02.09.2014 06:03 22,2 C 12,5 C 12,9 C 93 % 0 % 1021 hPa 0,0 l/m 0,0 km/h (0 Bft) 0 min
02.09.2014 06:06 22,2 C 12,5 C 12,8 C 93 % 0 % 1021 hPa 0,0 l/m 0,0 km/h (0 Bft) 0 min
02.09.2014 06:09 22,2 C 12,5 C 12,8 C 93 % 0 % 1021 hPa 0,0 l/m 0,0 km/h (0 Bft) 0 min
02.09.2014 06:12 22,2 C 12,5 C 12,8 C 93 % 0 % 1021 hPa 0,0 l/m 0,0 km/h (0 Bft) 0 min
02.09.2014 06:15 22,2 C 12,5 C 12,9 C 93 % 0 % 1021 hPa 0,0 l/m 0,0 km/h (0 Bft) 0 min
02.09.2014 06:18 22,2 C 12,5 C 12,9 C 93 % 0 % 1021 hPa 0,0 l/m 0,0 km/h (0 Bft) 0 min
02.09.2014 06:21 22,2 C 12,5 C 12,9 C 93 % 0 % 1021 hPa 0,0 l/m 0,0 km/h (0 Bft) 0 min
02.09.2014 06:24 22,2 C 12,5 C 12,9 C 93 % 0 % 1021 hPa 0,0 l/m 0,0 km/h (0 Bft) 0 min
02.09.2014 06:27 22,2 C 12,5 C 12,8 C 93 % 0 % 1021 hPa 0,3 l/m 0,0 km/h (0 Bft) 0 min
02.09.2014 06:30 22,2 C 12,5 C 12,8 C 93 % 0 % 1021 hPa 0,0 l/m 0,3 km/h (0 Bft) 0 min
02.09.2014 06:33 22,2 C 12,5 C 12,8 C 94 % 0 % 1021 hPa 0,0 l/m 0,3 km/h (0 Bft) 0 min
02.09.2014 06:36 22,2 C 12,4 C 12,8 C 94 % 0 % 1021 hPa 0,0 l/m 0,0 km/h (0 Bft) 0 min
02.09.2014 06:39 22,2 C 12,4 C 12,9 C 94 % 0 % 1021 hPa 0,0 l/m 0,0 km/h (0 Bft) 0 min
02.09.2014 06:42 22,2 C 12,4 C 12,7 C 94 % 0 % 1021 hPa 0,0 l/m 0,4 km/h (0 Bft) 0 min
02.09.2014 06:45 22,2 C 12,4 C 12,7 C 94 % 0 % 1021 hPa 0,0 l/m 0,4 km/h (0 Bft) 0 min
02.09.2014 06:48 22,2 C 12,4 C 12,7 C 94 % 1 % 1021 hPa 0,3 l/m 2,4 km/h (1 Bft) 0 min
02.09.2014 06:51 22,2 C 12,4 C 12,7 C 94 % 1 % 1021 hPa 0,0 l/m 1,7 km/h (1 Bft) 0 min
02.09.2014 06:54 22,2 C 12,3 C 12,7 C 95 % 1 % 1021 hPa 0,0 l/m 1,7 km/h (1 Bft) 0 min
02.09.2014 06:57 22,2 C 12,3 C 12,8 C 95 % 1 % 1021 hPa 0,0 l/m 0,1 km/h (0 Bft) 0 min
02.09.2014 07:00 22,2 C 12,3 C 12,7 C 95 % 1 % 1021 hPa 0,0 l/m 0,0 km/h (0 Bft) 0 min
02.09.2014 07:03 22,2 C 12,4 C 12,8 C 95 % 1 % 1021 hPa 0,0 l/m 0,0 km/h (0 Bft) 0 min
02.09.2014 07:06 22,2 C 12,4 C 12,8 C 95 % 1 % 1021 hPa 0,0 l/m 0,0 km/h (0 Bft) 0 min
02.09.2014 07:09 22,3 C 12,4 C 12,8 C 95 % 2 % 1021 hPa 0,0 l/m 0,0 km/h (0 Bft) 0 min
02.09.2014 07:12 22,2 C 12,4 C 12,7 C 95 % 2 % 1021 hPa 0,3 l/m 0,0 km/h (0 Bft) 0 min
02.09.2014 07:15 22,2 C 12,5 C 12,7 C 95 % 2 % 1021 hPa 0,0 l/m 0,0 km/h (0 Bft) 0 min
02.09.2014 07:18 22,3 C 12,5 C 12,7 C 95 % 3 % 1021 hPa 0,0 l/m 0,0 km/h (0 Bft) 0 min
02.09.2014 07:21 22,3 C 12,5 C 12,7 C 95 % 3 % 1021 hPa 0,0 l/m 0,0 km/h (0 Bft) 0 min
02.09.2014 07:24 22,3 C 12,5 C 12,7 C 95 % 3 % 1021 hPa 0,0 l/m 0,0 km/h (0 Bft) 0 min
02.09.2014 07:27 22,3 C 12,5 C 12,6 C 95 % 4 % 1021 hPa 0,3 l/m 0,0 km/h (0 Bft) 0 min
02.09.2014 07:30 22,3 C 12,5 C 12,7 C 95 % 5 % 1021 hPa 0,0 l/m 0,0 km/h (0 Bft) 0 min
02.09.2014 07:33 22,3 C 12,5 C 12,7 C 95 % 5 % 1021 hPa 0,0 l/m 0,0 km/h (0 Bft) 0 min
02.09.2014 07:36 22,2 C 12,5 C 12,8 C 95 % 6 % 1021 hPa 0,3 l/m 0,0 km/h (0 Bft) 0 min
02.09.2014 07:39 22,2 C 12,5 C 12,8 C 95 % 7 % 1021 hPa 0,0 l/m 0,0 km/h (0 Bft) 0 min
02.09.2014 07:42 22,3 C 12,6 C 12,9 C 95 % 8 % 1021 hPa 0,0 l/m 0,0 km/h (0 Bft) 0 min
02.09.2014 07:45 22,3 C 12,6 C 12,7 C 95 % 9 % 1021 hPa 0,0 l/m 0,0 km/h (0 Bft) 0 min
02.09.2014 07:48 22,3 C 12,6 C 12,8 C 95 % 10 % 1021 hPa 0,3 l/m 0,1 km/h (0 Bft) 0 min
02.09.2014 07:51 22,2 C 12,7 C 12,9 C 95 % 10 % 1021 hPa 0,0 l/m 0,0 km/h (0 Bft) 0 min
02.09.2014 07:54 22,2 C 12,7 C 12,8 C 95 % 10 % 1021 hPa 0,0 l/m 0,0 km/h (0 Bft) 0 min
02.09.2014 07:57 22,2 C 12,7 C 12,8 C 95 % 13 % 1021 hPa 0,0 l/m 0,0 km/h (0 Bft) 0 min
02.09.2014 08:00 22,2 C 12,7 C 12,8 C 95 % 14 % 1021 hPa 0,0 l/m 0,0 km/h (0 Bft) 0 min
02.09.2014 08:03 22,2 C 12,8 C 13,0 C 95 % 14 % 1021 hPa 0,3 l/m 0,0 km/h (0 Bft) 0 min
02.09.2014 08:06 22,2 C 12,8 C 13,0 C 95 % 15 % 1021 hPa 0,0 l/m 0,1 km/h (0 Bft) 0 min
02.09.2014 08:09 22,2 C 12,8 C 12,9 C 95 % 14 % 1021 hPa 0,0 l/m 0,0 km/h (0 Bft) 0 min
02.09.2014 08:12 22,1 C 12,9 C 13,0 C 95 % 14 % 1021 hPa 0,0 l/m 0,0 km/h (0 Bft) 0 min
02.09.2014 08:15 21,9 C 12,9 C 13,1 C 95 % 14 % 1021 hPa 0,0 l/m 0,0 km/h (0 Bft) 0 min
02.09.2014 08:18 21,9 C 12,9 C 13,0 C 95 % 14 % 1021 hPa 0,0 l/m 0,0 km/h (0 Bft) 0 min
02.09.2014 08:21 21,5 C 13,0 C 13,2 C 95 % 14 % 1021 hPa 0,0 l/m 0,0 km/h (0 Bft) 0 min
02.09.2014 08:24 21,5 C 13,0 C 13,2 C 95 % 15 % 1021 hPa 0,0 l/m 0,0 km/h (0 Bft) 0 min
02.09.2014 08:27 21,5 C 13,0 C 12,9 C 95 % 14 % 1021 hPa 0,0 l/m 3,8 km/h (1 Bft) 0 min
02.09.2014 08:30 21,6 C 13,0 C 13,0 C 95 % 13 % 1021 hPa 0,3 l/m 0,0 km/h (0 Bft) 0 min
02.09.2014 08:33 21,6 C 13,0 C 13,0 C 95 % 13 % 1021 hPa 0,0 l/m 0,0 km/h (0 Bft) 0 min
02.09.2014 08:36 21,7 C 13,0 C 13,2 C 95 % 13 % 1021 hPa 0,0 l/m 0,0 km/h (0 Bft) 0 min
02.09.2014 08:39 21,8 C 13,1 C 13,2 C 95 % 15 % 1021 hPa 0,0 l/m 0,1 km/h (0 Bft) 0 min
02.09.2014 08:42 21,8 C 13,2 C 13,2 C 95 % 15 % 1021 hPa 0,0 l/m 0,1 km/h (0 Bft) 0 min
02.09.2014 08:45 21,9 C 13,2 C 13,2 C 95 % 13 % 1021 hPa 0,0 l/m 0,1 km/h (0 Bft) 0 min
02.09.2014 08:48 22,0 C 13,2 C 13,2 C 95 % 14 % 1021 hPa 0,0 l/m 0,4 km/h (0 Bft) 0 min
02.09.2014 08:51 22,0 C 13,2 C 13,1 C 95 % 17 % 1021 hPa 0,0 l/m 0,2 km/h (0 Bft) 0 min
02.09.2014 08:54 22,0 C 13,2 C 13,4 C 95 % 18 % 1021 hPa 0,0 l/m 0,2 km/h (0 Bft) 0 min
02.09.2014 08:57 22,0 C 13,2 C 13,3 C 95 % 17 % 1021 hPa 0,0 l/m 1,6 km/h (1 Bft) 0 min
02.09.2014 09:00 22,0 C 13,3 C 13,3 C 95 % 18 % 1021 hPa 0,0 l/m 0,0 km/h (0 Bft) 0 min
02.09.2014 09:03 22,0 C 13,3 C 13,4 C 95 % 18 % 1021 hPa 0,0 l/m 0,0 km/h (0 Bft) 0 min
02.09.2014 09:06 22,0 C 13,3 C 13,2 C 95 % 24 % 1021 hPa 0,0 l/m 0,0 km/h (0 Bft) 0 min
02.09.2014 09:09 22,0 C 13,4 C 13,3 C 95 % 25 % 1021 hPa 0,0 l/m 0,6 km/h (0 Bft) 0 min
02.09.2014 09:12 22,0 C 13,4 C 13,2 C 95 % 25 % 1022 hPa 0,0 l/m 0,6 km/h (0 Bft) 0 min
02.09.2014 09:15 22,0 C 13,4 C 13,4 C 95 % 21 % 1022 hPa 0,0 l/m 0,6 km/h (0 Bft) 0 min
02.09.2014 09:18 22,0 C 13,5 C 13,4 C 95 % 21 % 1022 hPa 0,0 l/m 0,6 km/h (0 Bft) 0 min
02.09.2014 09:21 22,0 C 13,5 C 13,4 C 95 % 22 % 1022 hPa 0,0 l/m 0,8 km/h (0 Bft) 0 min
02.09.2014 09:24 22,0 C 13,5 C 13,4 C 95 % 21 % 1022 hPa 0,0 l/m 0,8 km/h (0 Bft) 0 min
02.09.2014 09:27 22,0 C 13,5 C 13,5 C 95 % 23 % 1022 hPa 0,0 l/m 3,4 km/h (1 Bft) 0 min
02.09.2014 09:30 22,0 C 13,6 C 13,4 C 95 % 23 % 1022 hPa 0,0 l/m 2,5 km/h (1 Bft) 0 min
02.09.2014 09:33 22,0 C 13,6 C 13,5 C 95 % 22 % 1022 hPa 0,0 l/m 2,5 km/h (1 Bft) 0 min
02.09.2014 09:36 22,0 C 13,6 C 13,4 C 95 % 20 % 1022 hPa 0,0 l/m 2,5 km/h (1 Bft) 0 min
02.09.2014 09:39 22,0 C 13,6 C 13,5 C 95 % 18 % 1022 hPa 0,0 l/m 0,5 km/h (0 Bft) 0 min
02.09.2014 09:42 22,0 C 13,7 C 13,5 C 95 % 17 % 1022 hPa 0,0 l/m 0,0 km/h (0 Bft) 0 min
02.09.2014 09:45 22,0 C 13,7 C 13,4 C 95 % 17 % 1022 hPa 0,0 l/m 0,2 km/h (0 Bft) 0 min
02.09.2014 09:48 22,0 C 13,7 C 13,4 C 95 % 20 % 1022 hPa 0,0 l/m 0,3 km/h (0 Bft) 0 min
02.09.2014 09:51 22,0 C 13,7 C 13,3 C 95 % 19 % 1022 hPa 0,0 l/m 0,3 km/h (0 Bft) 0 min
02.09.2014 09:54 22,0 C 13,7 C 13,6 C 95 % 19 % 1022 hPa 0,0 l/m 0,3 km/h (0 Bft) 0 min
02.09.2014 09:57 22,0 C 13,8 C 13,5 C 95 % 18 % 1022 hPa 0,0 l/m 0,1 km/h (0 Bft) 0 min
02.09.2014 10:00 22,0 C 13,8 C 13,6 C 95 % 19 % 1022 hPa 0,0 l/m 0,1 km/h (0 Bft) 0 min
02.09.2014 10:03 22,0 C 13,8 C 13,5 C 95 % 18 % 1022 hPa 0,0 l/m 0,1 km/h (0 Bft) 0 min
02.09.2014 10:06 22,0 C 13,8 C 13,5 C 95 % 21 % 1022 hPa 0,0 l/m 0,1 km/h (0 Bft) 0 min
02.09.2014 10:09 22,0 C 13,9 C 13,7 C 95 % 23 % 1022 hPa 0,0 l/m 0,0 km/h (0 Bft) 0 min
02.09.2014 10:12 22,1 C 13,9 C 13,7 C 95 % 23 % 1022 hPa 0,0 l/m 0,0 km/h (0 Bft) 0 min
02.09.2014 10:15 22,0 C 13,9 C 13,6 C 95 % 21 % 1022 hPa 0,0 l/m 0,0 km/h (0 Bft) 0 min
02.09.2014 10:18 22,1 C 14,0 C 13,6 C 95 % 20 % 1022 hPa 0,0 l/m 0,0 km/h (0 Bft) 0 min
02.09.2014 10:21 22,0 C 14,0 C 13,6 C 95 % 18 % 1022 hPa 0,0 l/m 0,0 km/h (0 Bft) 0 min
02.09.2014 10:24 22,1 C 14,0 C 13,6 C 95 % 18 % 1022 hPa 0,0 l/m 0,0 km/h (0 Bft) 0 min
02.09.2014 10:27 22,1 C 14,0 C 13,6 C 95 % 19 % 1022 hPa 0,3 l/m 0,0 km/h (0 Bft) 0 min
02.09.2014 10:30 22,1 C 14,0 C 13,6 C 95 % 16 % 1022 hPa 0,0 l/m 0,0 km/h (0 Bft) 0 min
02.09.2014 10:33 22,1 C 14,0 C 13,7 C 95 % 15 % 1022 hPa 0,0 l/m 0,0 km/h (0 Bft) 0 min
02.09.2014 10:36 22,1 C 14,0 C 13,8 C 95 % 15 % 1022 hPa 0,0 l/m 0,0 km/h (0 Bft) 0 min
02.09.2014 10:39 22,0 C 14,1 C 13,7 C 95 % 17 % 1022 hPa 0,0 l/m 0,0 km/h (0 Bft) 0 min
02.09.2014 10:42 22,1 C 14,1 C 13,6 C 94 % 22 % 1022 hPa 0,0 l/m 0,0 km/h (0 Bft) 0 min
02.09.2014 10:45 22,1 C 14,1 C 13,8 C 94 % 22 % 1022 hPa 0,0 l/m 0,0 km/h (0 Bft) 0 min
02.09.2014 10:48 22,1 C 14,1 C 13,8 C 94 % 21 % 1022 hPa 0,0 l/m 0,1 km/h (0 Bft) 0 min
02.09.2014 10:51 22,1 C 14,2 C 13,8 C 94 % 20 % 1022 hPa 0,0 l/m 0,0 km/h (0 Bft) 0 min
02.09.2014 10:54 22,1 C 14,2 C 13,7 C 94 % 22 % 1022 hPa 0,0 l/m 0,0 km/h (0 Bft) 0 min
02.09.2014 10:57 22,1 C 14,3 C 13,7 C 94 % 26 % 1022 hPa 0,0 l/m 0,4 km/h (0 Bft) 0 min
02.09.2014 11:00 22,0 C 14,3 C 14,2 C 94 % 23 % 1022 hPa 0,0 l/m 0,0 km/h (0 Bft) 0 min
02.09.2014 11:03 22,1 C 14,4 C 14,2 C 94 % 23 % 1022 hPa 0,0 l/m 0,0 km/h (0 Bft) 0 min
02.09.2014 11:06 22,1 C 14,4 C 13,6 C 94 % 18 % 1022 hPa 0,0 l/m 0,4 km/h (0 Bft) 0 min
02.09.2014 11:09 22,1 C 14,3 C 13,7 C 94 % 21 % 1022 hPa 0,0 l/m 4,6 km/h (1 Bft) 0 min
02.09.2014 11:12 22,0 C 14,4 C 13,9 C 94 % 27 % 1022 hPa 0,0 l/m 4,6 km/h (1 Bft) 0 min
02.09.2014 11:15 22,1 C 14,4 C 13,9 C 94 % 30 % 1022 hPa 0,0 l/m 4,6 km/h (1 Bft) 0 min
02.09.2014 11:18 22,1 C 14,4 C 13,9 C 94 % 26 % 1022 hPa 0,0 l/m 6,1 km/h (2 Bft) 0 min
02.09.2014 11:21 22,1 C 14,5 C 14,1 C 94 % 29 % 1022 hPa 0,0 l/m 3,4 km/h (1 Bft) 0 min
02.09.2014 11:24 22,1 C 14,5 C 14,2 C 94 % 26 % 1022 hPa 0,0 l/m 3,4 km/h (1 Bft) 0 min
02.09.2014 11:27 22,0 C 14,5 C 14,2 C 94 % 23 % 1022 hPa 0,0 l/m 0,0 km/h (0 Bft) 0 min
02.09.2014 11:30 22,1 C 14,6 C 14,1 C 94 % 21 % 1022 hPa 0,0 l/m 0,2 km/h (0 Bft) 0 min
02.09.2014 11:33 22,0 C 14,6 C 14,2 C 94 % 21 % 1022 hPa 0,0 l/m 0,2 km/h (0 Bft) 0 min
02.09.2014 11:36 22,1 C 14,6 C 14,1 C 94 % 32 % 1022 hPa 0,0 l/m 1,5 km/h (1 Bft) 0 min
02.09.2014 11:39 22,1 C 14,7 C 14,4 C 94 % 32 % 1022 hPa 0,0 l/m 3,9 km/h (1 Bft) 0 min
02.09.2014 11:42 22,0 C 14,8 C 14,4 C 93 % 36 % 1022 hPa 0,0 l/m 3,9 km/h (1 Bft) 0 min
02.09.2014 11:45 22,1 C 14,9 C 14,4 C 93 % 37 % 1022 hPa 0,0 l/m 3,9 km/h (1 Bft) 0 min
02.09.2014 11:48 22,0 C 15,0 C 14,6 C 93 % 37 % 1022 hPa 0,0 l/m 2,7 km/h (1 Bft) 0 min
02.09.2014 11:51 22,0 C 15,0 C 14,7 C 93 % 37 % 1022 hPa 0,0 l/m 3,9 km/h (1 Bft) 0 min
02.09.2014 11:54 22,1 C 15,0 C 14,7 C 93 % 38 % 1022 hPa 0,0 l/m 3,9 km/h (1 Bft) 0 min
02.09.2014 11:57 22,1 C 15,0 C 14,7 C 92 % 40 % 1022 hPa 0,0 l/m 4,2 km/h (1 Bft) 0 min
02.09.2014 12:00 22,0 C 15,1 C 14,7 C 92 % 41 % 1022 hPa 0,0 l/m 5,9 km/h (2 Bft) 0 min
02.09.2014 12:03 22,1 C 15,1 C 14,8 C 92 % 36 % 1022 hPa 0,0 l/m 5,9 km/h (2 Bft) 0 min
02.09.2014 12:06 22,1 C 15,1 C 14,8 C 92 % 31 % 1022 hPa 0,0 l/m 3,0 km/h (1 Bft) 0 min
02.09.2014 12:09 22,1 C 15,1 C 14,8 C 92 % 27 % 1022 hPa 0,0 l/m 2,6 km/h (1 Bft) 0 min
02.09.2014 12:12 22,0 C 15,1 C 14,8 C 92 % 25 % 1022 hPa 0,0 l/m 2,6 km/h (1 Bft) 0 min
02.09.2014 12:15 21,8 C 15,2 C 14,8 C 92 % 26 % 1022 hPa 0,0 l/m 2,6 km/h (1 Bft) 0 min
02.09.2014 12:18 21,7 C 15,1 C 14,9 C 91 % 30 % 1022 hPa 0,0 l/m 5,6 km/h (1 Bft) 0 min
02.09.2014 12:21 21,6 C 15,2 C 14,9 C 91 % 30 % 1022 hPa 0,0 l/m 3,4 km/h (1 Bft) 0 min
02.09.2014 12:24 21,6 C 15,3 C 15,1 C 91 % 43 % 1022 hPa 0,0 l/m 3,4 km/h (1 Bft) 0 min
02.09.2014 12:27 21,6 C 15,3 C 15,2 C 91 % 47 % 1022 hPa 0,0 l/m 5,2 km/h (1 Bft) 0 min
02.09.2014 12:30 21,7 C 15,4 C 15,4 C 91 % 49 % 1022 hPa 0,0 l/m 3,4 km/h (1 Bft) 0 min
02.09.2014 12:33 21,7 C 15,6 C 15,5 C 90 % 50 % 1022 hPa 0,0 l/m 3,4 km/h (1 Bft) 0 min
02.09.2014 12:36 21,7 C 15,7 C 15,6 C 90 % 50 % 1022 hPa 0,0 l/m 5,9 km/h (2 Bft) 0 min
02.09.2014 12:39 21,8 C 15,8 C 15,6 C 90 % 50 % 1022 hPa 0,0 l/m 5,4 km/h (1 Bft) 0 min
02.09.2014 12:42 21,9 C 15,9 C 15,5 C 89 % 82 % 1022 hPa 0,0 l/m 5,4 km/h (1 Bft) 3 min
02.09.2014 12:45 21,9 C 16,0 C 15,8 C 89 % 79 % 1022 hPa 0,0 l/m 5,4 km/h (1 Bft) 3 min
02.09.2014 12:48 21,9 C 16,2 C 15,9 C 88 % 77 % 1022 hPa 0,0 l/m 5,4 km/h (1 Bft) 3 min
02.09.2014 12:51 22,0 C 16,3 C 15,9 C 88 % 77 % 1022 hPa 0,0 l/m 6,3 km/h (2 Bft) 3 min
02.09.2014 12:54 22,0 C 16,4 C 15,8 C 87 % 77 % 1022 hPa 0,0 l/m 6,7 km/h (2 Bft) 3 min
02.09.2014 12:57 22,0 C 16,4 C 15,9 C 86 % 67 % 1022 hPa 0,0 l/m 4,4 km/h (1 Bft) 3 min
02.09.2014 13:00 22,0 C 16,5 C 16,1 C 86 % 67 % 1022 hPa 0,0 l/m 4,4 km/h (1 Bft) 3 min
02.09.2014 13:03 22,0 C 16,6 C 15,9 C 85 % 84 % 1022 hPa 0,0 l/m 4,4 km/h (1 Bft) 3 min
02.09.2014 13:06 22,1 C 16,7 C 16,3 C 85 % 84 % 1022 hPa 0,0 l/m 4,4 km/h (1 Bft) 3 min
02.09.2014 13:09 22,2 C 16,8 C 16,3 C 84 % 80 % 1021 hPa 0,0 l/m 0,7 km/h (0 Bft) 3 min
02.09.2014 13:12 22,2 C 17,0 C 15,9 C 83 % 80 % 1021 hPa 0,0 l/m 11,3 km/h (2 Bft) 3 min
02.09.2014 13:15 22,2 C 17,0 C 15,9 C 81 % 73 % 1021 hPa 0,0 l/m 9,1 km/h (2 Bft) 3 min
02.09.2014 13:18 22,2 C 16,9 C 16,2 C 81 % 74 % 1021 hPa 0,0 l/m 9,4 km/h (2 Bft) 3 min
02.09.2014 13:21 22,3 C 16,9 C 16,4 C 81 % 76 % 1021 hPa 0,0 l/m 6,2 km/h (2 Bft) 3 min
02.09.2014 13:24 22,2 C 17,2 C 16,4 C 79 % 76 % 1021 hPa 0,0 l/m 5,7 km/h (1 Bft) 3 min
02.09.2014 13:27 22,2 C 17,2 C 16,4 C 79 % 66 % 1021 hPa 0,0 l/m 5,7 km/h (1 Bft) 3 min
02.09.2014 13:30 22,2 C 17,2 C 16,5 C 78 % 66 % 1021 hPa 0,0 l/m 6,3 km/h (2 Bft) 3 min
02.09.2014 13:33 22,2 C 17,3 C 16,5 C 78 % 84 % 1021 hPa 0,0 l/m 6,1 km/h (2 Bft) 3 min
02.09.2014 13:36 22,2 C 17,4 C 16,5 C 78 % 86 % 1021 hPa 0,0 l/m 1,0 km/h (0 Bft) 3 min
02.09.2014 13:39 22,1 C 17,5 C 16,8 C 75 % 91 % 1021 hPa 0,0 l/m 3,5 km/h (1 Bft) 3 min
02.09.2014 13:42 22,0 C 17,5 C 16,9 C 76 % 91 % 1021 hPa 0,0 l/m 5,9 km/h (2 Bft) 3 min
02.09.2014 13:45 22,0 C 17,6 C 17,0 C 75 % 91 % 1021 hPa 0,0 l/m 11,6 km/h (2 Bft) 3 min
02.09.2014 13:48 22,0 C 17,7 C 17,0 C 74 % 100 % 1021 hPa 0,0 l/m 5,0 km/h (1 Bft) 3 min
02.09.2014 13:51 22,0 C 17,8 C 17,0 C 74 % 98 % 1021 hPa 0,0 l/m 5,0 km/h (1 Bft) 3 min
02.09.2014 13:54 22,0 C 17,8 C 17,0 C 73 % 98 % 1021 hPa 0,0 l/m 7,0 km/h (2 Bft) 3 min
02.09.2014 13:57 22,0 C 17,9 C 16,9 C 74 % 66 % 1021 hPa 0,0 l/m 1,3 km/h (1 Bft) 3 min
02.09.2014 14:00 22,0 C 18,0 C 17,0 C 74 % 70 % 1021 hPa 0,0 l/m 3,5 km/h (1 Bft) 3 min
02.09.2014 14:03 22,0 C 18,0 C 17,1 C 74 % 68 % 1021 hPa 0,0 l/m 3,5 km/h (1 Bft) 3 min
02.09.2014 14:06 22,0 C 18,0 C 17,1 C 74 % 68 % 1021 hPa 0,0 l/m 3,5 km/h (1 Bft) 3 min
02.09.2014 14:09 22,0 C 18,1 C 17,3 C 72 % 74 % 1021 hPa 0,0 l/m 4,6 km/h (1 Bft) 3 min
02.09.2014 14:12 22,0 C 18,1 C 17,5 C 72 % 71 % 1021 hPa 0,0 l/m 6,8 km/h (2 Bft) 3 min
02.09.2014 14:15 22,0 C 18,1 C 17,5 C 71 % 72 % 1021 hPa 0,0 l/m 8,6 km/h (2 Bft) 3 min
02.09.2014 14:18 22,0 C 18,3 C 17,5 C 71 % 77 % 1021 hPa 0,0 l/m 1,5 km/h (1 Bft) 3 min
02.09.2014 14:21 22,0 C 18,3 C 17,4 C 70 % 81 % 1021 hPa 0,0 l/m 1,5 km/h (1 Bft) 3 min
02.09.2014 14:24 22,0 C 18,4 C 17,5 C 69 % 75 % 1021 hPa 0,0 l/m 1,5 km/h (1 Bft) 3 min
02.09.2014 14:27 22,0 C 18,4 C 17,5 C 69 % 75 % 1021 hPa 0,0 l/m 7,9 km/h (2 Bft) 3 min
02.09.2014 14:30 22,0 C 18,5 C 17,7 C 69 % 82 % 1021 hPa 0,0 l/m 7,9 km/h (2 Bft) 3 min
02.09.2014 14:33 22,0 C 18,6 C 17,9 C 70 % 82 % 1021 hPa 0,0 l/m 7,9 km/h (2 Bft) 3 min
02.09.2014 14:36 22,0 C 18,7 C 17,6 C 67 % 69 % 1021 hPa 0,0 l/m 0,4 km/h (0 Bft) 3 min
02.09.2014 14:39 22,0 C 18,7 C 17,5 C 67 % 69 % 1021 hPa 0,0 l/m 2,3 km/h (1 Bft) 3 min
02.09.2014 14:42 22,0 C 18,7 C 17,2 C 69 % 52 % 1021 hPa 0,0 l/m 0,4 km/h (0 Bft) 0 min
02.09.2014 14:45 22,0 C 18,2 C 17,3 C 69 % 50 % 1021 hPa 0,0 l/m 0,3 km/h (0 Bft) 0 min
02.09.2014 14:48 22,0 C 18,2 C 17,2 C 69 % 48 % 1021 hPa 0,0 l/m 0,3 km/h (0 Bft) 0 min
02.09.2014 14:51 22,0 C 18,1 C 17,2 C 68 % 49 % 1021 hPa 0,0 l/m 10,4 km/h (2 Bft) 0 min
02.09.2014 14:54 22,0 C 18,1 C 17,3 C 70 % 47 % 1021 hPa 0,0 l/m 10,4 km/h (2 Bft) 0 min
02.09.2014 14:57 22,0 C 18,1 C 17,3 C 69 % 45 % 1021 hPa 0,0 l/m 4,6 km/h (1 Bft) 0 min
02.09.2014 15:00 22,0 C 18,2 C 17,3 C 69 % 45 % 1021 hPa 0,0 l/m 4,2 km/h (1 Bft) 0 min
02.09.2014 15:03 22,0 C 18,3 C 17,3 C 68 % 49 % 1021 hPa 0,0 l/m 4,2 km/h (1 Bft) 0 min
02.09.2014 15:06 22,0 C 18,3 C 17,4 C 66 % 55 % 1021 hPa 0,0 l/m 6,1 km/h (2 Bft) 3 min
02.09.2014 15:09 22,0 C 18,3 C 17,5 C 67 % 55 % 1021 hPa 0,0 l/m 6,1 km/h (2 Bft) 3 min
02.09.2014 15:12 22,0 C 18,4 C 17,7 C 67 % 68 % 1021 hPa 0,0 l/m 6,1 km/h (2 Bft) 3 min
02.09.2014 15:15 22,0 C 18,6 C 17,9 C 66 % 68 % 1021 hPa 0,0 l/m 6,1 km/h (2 Bft) 3 min
02.09.2014 15:18 22,0 C 18,7 C 17,7 C 67 % 68 % 1021 hPa 0,0 l/m 4,9 km/h (1 Bft) 3 min
02.09.2014 15:21 22,0 C 18,8 C 17,6 C 66 % 68 % 1021 hPa 0,0 l/m 8,4 km/h (2 Bft) 3 min
02.09.2014 15:24 22,0 C 18,8 C 17,7 C 67 % 56 % 1021 hPa 0,0 l/m 8,4 km/h (2 Bft) 3 min
02.09.2014 15:27 22,0 C 18,8 C 17,6 C 67 % 61 % 1021 hPa 0,0 l/m 3,0 km/h (1 Bft) 3 min
02.09.2014 15:30 22,0 C 18,8 C 17,6 C 67 % 61 % 1021 hPa 0,0 l/m 2,8 km/h (1 Bft) 3 min
02.09.2014 15:33 22,0 C 18,9 C 17,8 C 68 % 62 % 1021 hPa 0,0 l/m 2,8 km/h (1 Bft) 3 min
02.09.2014 15:36 22,0 C 18,8 C 17,7 C 65 % 57 % 1021 hPa 0,0 l/m 4,6 km/h (1 Bft) 3 min
02.09.2014 15:39 22,0 C 18,8 C 17,9 C 66 % 59 % 1021 hPa 0,0 l/m 0,3 km/h (0 Bft) 3 min
02.09.2014 15:42 22,0 C 18,9 C 18,0 C 66 % 56 % 1021 hPa 0,0 l/m 0,3 km/h (0 Bft) 3 min
02.09.2014 15:45 22,0 C 19,0 C 18,0 C 66 % 55 % 1021 hPa 0,0 l/m 0,3 km/h (0 Bft) 3 min
02.09.2014 15:48 22,0 C 19,0 C 18,0 C 63 % 56 % 1021 hPa 0,0 l/m 4,9 km/h (1 Bft) 3 min
02.09.2014 15:51 22,0 C 18,9 C 17,9 C 64 % 55 % 1021 hPa 0,0 l/m 5,2 km/h (1 Bft) 3 min
02.09.2014 15:54 22,0 C 18,9 C 18,0 C 65 % 49 % 1021 hPa 0,0 l/m 5,2 km/h (1 Bft) 0 min
02.09.2014 15:57 22,0 C 19,0 C 17,9 C 65 % 49 % 1021 hPa 0,0 l/m 3,7 km/h (1 Bft) 0 min
02.09.2014 16:00 22,0 C 19,0 C 17,7 C 64 % 37 % 1021 hPa 0,0 l/m 6,3 km/h (2 Bft) 0 min
02.09.2014 16:03 22,0 C 19,0 C 17,7 C 64 % 36 % 1021 hPa 0,0 l/m 6,3 km/h (2 Bft) 0 min
02.09.2014 16:06 22,1 C 18,8 C 17,7 C 64 % 39 % 1021 hPa 0,0 l/m 2,1 km/h (1 Bft) 0 min
02.09.2014 16:09 22,0 C 18,9 C 17,6 C 65 % 42 % 1021 hPa 0,0 l/m 4,3 km/h (1 Bft) 0 min
02.09.2014 16:12 22,0 C 18,8 C 17,7 C 65 % 43 % 1021 hPa 0,0 l/m 4,3 km/h (1 Bft) 0 min
02.09.2014 16:15 22,0 C 18,8 C 17,7 C 65 % 44 % 1021 hPa 0,0 l/m 4,3 km/h (1 Bft) 0 min
02.09.2014 16:18 22,1 C 18,8 C 17,7 C 65 % 43 % 1021 hPa 0,0 l/m 8,5 km/h (2 Bft) 0 min
02.09.2014 16:21 22,0 C 18,7 C 17,6 C 64 % 42 % 1021 hPa 0,0 l/m 4,0 km/h (1 Bft) 0 min
02.09.2014 16:24 22,1 C 18,7 C 17,7 C 64 % 42 % 1021 hPa 0,0 l/m 4,0 km/h (1 Bft) 0 min
02.09.2014 16:27 22,0 C 18,9 C 17,8 C 65 % 40 % 1021 hPa 0,0 l/m 0,1 km/h (0 Bft) 0 min
02.09.2014 16:30 22,0 C 18,8 C 17,6 C 64 % 38 % 1021 hPa 0,0 l/m 6,1 km/h (2 Bft) 0 min
02.09.2014 16:33 22,0 C 18,7 C 17,6 C 64 % 37 % 1021 hPa 0,0 l/m 6,1 km/h (2 Bft) 0 min
02.09.2014 16:36 22,0 C 18,6 C 17,6 C 64 % 37 % 1021 hPa 0,0 l/m 7,0 km/h (2 Bft) 0 min
02.09.2014 16:39 22,0 C 18,6 C 17,6 C 64 % 37 % 1021 hPa 0,0 l/m 6,8 km/h (2 Bft) 0 min
02.09.2014 16:42 22,0 C 18,5 C 17,6 C 64 % 35 % 1021 hPa 0,0 l/m 6,8 km/h (2 Bft) 0 min
02.09.2014 16:45 22,0 C 18,6 C 17,5 C 64 % 33 % 1021 hPa 0,0 l/m 6,8 km/h (2 Bft) 0 min
02.09.2014 16:48 22,0 C 18,5 C 17,6 C 64 % 31 % 1021 hPa 0,0 l/m 6,7 km/h (2 Bft) 0 min
02.09.2014 16:51 22,0 C 18,4 C 17,6 C 64 % 28 % 1021 hPa 0,0 l/m 5,3 km/h (1 Bft) 0 min
02.09.2014 16:54 22,0 C 18,3 C 17,5 C 64 % 25 % 1021 hPa 0,0 l/m 5,3 km/h (1 Bft) 0 min
02.09.2014 16:57 22,0 C 18,3 C 17,5 C 65 % 21 % 1021 hPa 0,0 l/m 3,1 km/h (1 Bft) 0 min
02.09.2014 17:00 22,1 C 18,3 C 17,3 C 66 % 17 % 1021 hPa 0,0 l/m 4,8 km/h (1 Bft) 0 min
02.09.2014 17:03 22,0 C 18,2 C 17,1 C 67 % 12 % 1021 hPa 0,0 l/m 4,8 km/h (1 Bft) 0 min
02.09.2014 17:06 22,1 C 18,2 C 17,3 C 67 % 11 % 1021 hPa 0,0 l/m 4,8 km/h (1 Bft) 0 min
02.09.2014 17:09 22,1 C 18,0 C 17,0 C 68 % 10 % 1021 hPa 0,0 l/m 0,1 km/h (0 Bft) 0 min
02.09.2014 17:12 22,2 C 18,0 C 16,9 C 68 % 8 % 1021 hPa 0,0 l/m 0,1 km/h (0 Bft) 0 min
02.09.2014 17:15 22,1 C 17,9 C 16,8 C 69 % 6 % 1021 hPa 0,0 l/m 1,9 km/h (1 Bft) 0 min
02.09.2014 17:18 22,2 C 17,8 C 16,8 C 68 % 5 % 1021 hPa 0,0 l/m 4,1 km/h (1 Bft) 0 min
02.09.2014 17:21 22,2 C 17,7 C 16,6 C 68 % 5 % 1021 hPa 0,0 l/m 7,4 km/h (2 Bft) 0 min
02.09.2014 17:24 22,1 C 17,5 C 16,4 C 69 % 5 % 1021 hPa 0,0 l/m 9,9 km/h (2 Bft) 0 min
02.09.2014 17:27 22,2 C 17,3 C 16,4 C 69 % 5 % 1021 hPa 0,0 l/m 8,4 km/h (2 Bft) 0 min
02.09.2014 17:30 22,1 C 17,1 C 16,4 C 70 % 5 % 1021 hPa 0,0 l/m 4,5 km/h (1 Bft) 0 min
02.09.2014 17:33 22,1 C 16,9 C 16,1 C 72 % 5 % 1021 hPa 0,0 l/m 3,4 km/h (1 Bft) 0 min
02.09.2014 17:36 22,1 C 16,8 C 16,0 C 72 % 5 % 1021 hPa 0,0 l/m 0,4 km/h (0 Bft) 0 min
02.09.2014 17:39 22,1 C 16,7 C 15,9 C 73 % 5 % 1021 hPa 0,0 l/m 0,0 km/h (0 Bft) 0 min
02.09.2014 17:42 22,2 C 16,7 C 16,0 C 73 % 5 % 1021 hPa 0,0 l/m 0,0 km/h (0 Bft) 0 min
02.09.2014 17:45 22,2 C 16,7 C 16,0 C 73 % 5 % 1021 hPa 0,0 l/m 0,0 km/h (0 Bft) 0 min
02.09.2014 17:48 22,1 C 16,7 C 15,9 C 73 % 5 % 1021 hPa 0,0 l/m 0,0 km/h (0 Bft) 0 min
02.09.2014 17:51 22,2 C 16,7 C 15,9 C 73 % 6 % 1021 hPa 0,0 l/m 0,0 km/h (0 Bft) 0 min
02.09.2014 17:54 22,2 C 16,7 C 15,9 C 74 % 6 % 1021 hPa 0,0 l/m 0,0 km/h (0 Bft) 0 min
02.09.2014 17:57 22,2 C 16,7 C 15,9 C 74 % 6 % 1021 hPa 0,0 l/m 0,0 km/h (0 Bft) 0 min
02.09.2014 18:00 22,2 C 16,6 C 15,5 C 74 % 7 % 1021 hPa 0,0 l/m 0,0 km/h (0 Bft) 0 min
02.09.2014 18:03 22,2 C 16,5 C 15,5 C 74 % 7 % 1021 hPa 0,0 l/m 0,3 km/h (0 Bft) 0 min
02.09.2014 18:06 22,2 C 16,4 C 15,5 C 75 % 7 % 1021 hPa 0,3 l/m 0,3 km/h (0 Bft) 0 min
02.09.2014 18:09 22,2 C 16,4 C 15,5 C 75 % 7 % 1021 hPa 0,0 l/m 0,1 km/h (0 Bft) 0 min
02.09.2014 18:12 22,2 C 16,4 C 15,5 C 76 % 7 % 1021 hPa 0,0 l/m 0,4 km/h (0 Bft) 0 min
02.09.2014 18:15 22,2 C 16,2 C 15,6 C 78 % 8 % 1021 hPa 0,0 l/m 0,4 km/h (0 Bft) 0 min
02.09.2014 18:18 22,2 C 16,1 C 15,6 C 79 % 8 % 1021 hPa 0,0 l/m 0,3 km/h (0 Bft) 0 min
02.09.2014 18:21 22,2 C 16,1 C 15,6 C 80 % 8 % 1021 hPa 0,0 l/m 0,2 km/h (0 Bft) 0 min
02.09.2014 18:24 22,2 C 16,1 C 15,6 C 80 % 8 % 1021 hPa 0,0 l/m 0,1 km/h (0 Bft) 0 min
02.09.2014 18:27 22,2 C 16,0 C 15,5 C 81 % 8 % 1021 hPa 0,0 l/m 0,3 km/h (0 Bft) 0 min
02.09.2014 18:30 22,2 C 16,0 C 15,6 C 81 % 9 % 1021 hPa 0,0 l/m 2,7 km/h (1 Bft) 0 min
02.09.2014 18:33 22,2 C 16,0 C 15,5 C 81 % 9 % 1021 hPa 0,0 l/m 0,3 km/h (0 Bft) 0 min
02.09.2014 18:36 22,2 C 16,0 C 15,5 C 82 % 9 % 1021 hPa 0,0 l/m 0,5 km/h (0 Bft) 0 min
02.09.2014 18:39 22,2 C 16,0 C 15,6 C 82 % 8 % 1021 hPa 0,0 l/m 0,6 km/h (0 Bft) 0 min
02.09.2014 18:42 22,2 C 16,0 C 15,5 C 83 % 7 % 1021 hPa 0,0 l/m 0,1 km/h (0 Bft) 0 min
02.09.2014 18:45 22,2 C 16,0 C 15,5 C 83 % 7 % 1021 hPa 0,0 l/m 0,0 km/h (0 Bft) 0 min
02.09.2014 18:48 22,2 C 16,0 C 15,6 C 83 % 6 % 1021 hPa 0,0 l/m 0,0 km/h (0 Bft) 0 min
02.09.2014 18:51 22,2 C 16,0 C 15,6 C 83 % 6 % 1021 hPa 0,0 l/m 0,0 km/h (0 Bft) 0 min
02.09.2014 18:54 22,2 C 16,0 C 15,5 C 83 % 6 % 1021 hPa 0,0 l/m 0,0 km/h (0 Bft) 0 min
02.09.2014 18:57 22,2 C 16,0 C 15,5 C 83 % 5 % 1021 hPa 0,0 l/m 0,1 km/h (0 Bft) 0 min
02.09.2014 19:00 22,2 C 16,0 C 15,5 C 83 % 5 % 1021 hPa 0,0 l/m 0,1 km/h (0 Bft) 0 min
02.09.2014 19:03 22,2 C 16,0 C 15,4 C 83 % 4 % 1021 hPa 0,0 l/m 0,1 km/h (0 Bft) 0 min
02.09.2014 19:06 22,2 C 16,0 C 15,5 C 83 % 4 % 1021 hPa 0,0 l/m 0,1 km/h (0 Bft) 0 min
02.09.2014 19:09 22,2 C 16,0 C 15,5 C 83 % 4 % 1022 hPa 0,0 l/m 0,3 km/h (0 Bft) 0 min
02.09.2014 19:12 22,2 C 15,9 C 15,4 C 83 % 3 % 1022 hPa 0,0 l/m 0,3 km/h (0 Bft) 0 min
02.09.2014 19:15 22,2 C 15,9 C 15,4 C 84 % 3 % 1022 hPa 0,0 l/m 0,3 km/h (0 Bft) 0 min
02.09.2014 19:18 22,2 C 15,8 C 15,3 C 84 % 3 % 1022 hPa 0,0 l/m 0,0 km/h (0 Bft) 0 min
02.09.2014 19:21 22,2 C 15,8 C 15,4 C 85 % 2 % 1022 hPa 0,0 l/m 0,1 km/h (0 Bft) 0 min
02.09.2014 19:24 22,2 C 15,8 C 15,4 C 85 % 2 % 1022 hPa 0,3 l/m 0,1 km/h (0 Bft) 0 min
02.09.2014 19:27 22,2 C 15,8 C 15,3 C 85 % 1 % 1022 hPa 0,0 l/m 0,1 km/h (0 Bft) 0 min
02.09.2014 19:30 22,2 C 15,8 C 15,3 C 85 % 1 % 1022 hPa 0,0 l/m 0,0 km/h (0 Bft) 0 min
02.09.2014 19:33 22,2 C 15,7 C 15,3 C 86 % 1 % 1022 hPa 0,0 l/m 0,0 km/h (0 Bft) 0 min
02.09.2014 19:36 22,2 C 15,7 C 15,3 C 86 % 1 % 1022 hPa 0,0 l/m 0,0 km/h (0 Bft) 0 min
02.09.2014 19:39 22,2 C 15,7 C 15,3 C 86 % 1 % 1022 hPa 0,0 l/m 0,0 km/h (0 Bft) 0 min
02.09.2014 19:42 22,2 C 15,7 C 15,1 C 86 % 0 % 1022 hPa 0,0 l/m 0,0 km/h (0 Bft) 0 min
02.09.2014 19:45 22,3 C 15,7 C 15,1 C 87 % 0 % 1022 hPa 0,0 l/m 0,0 km/h (0 Bft) 0 min
02.09.2014 19:48 22,3 C 15,6 C 15,0 C 87 % 0 % 1022 hPa 0,0 l/m 0,0 km/h (0 Bft) 0 min
02.09.2014 19:51 22,3 C 15,6 C 15,0 C 87 % 0 % 1022 hPa 0,0 l/m 0,1 km/h (0 Bft) 0 min
02.09.2014 19:54 22,2 C 15,5 C 15,0 C 87 % 0 % 1022 hPa 0,0 l/m 0,1 km/h (0 Bft) 0 min
02.09.2014 19:57 22,2 C 15,5 C 14,9 C 87 % 0 % 1022 hPa 0,0 l/m 0,3 km/h (0 Bft) 0 min
02.09.2014 20:00 22,3 C 15,5 C 15,0 C 87 % 0 % 1022 hPa 0,0 l/m 0,0 km/h (0 Bft) 0 min
02.09.2014 20:03 22,2 C 15,5 C 14,9 C 87 % 0 % 1022 hPa 0,0 l/m 0,0 km/h (0 Bft) 0 min
02.09.2014 20:06 22,2 C 15,5 C 14,9 C 87 % 0 % 1022 hPa 0,0 l/m 1,8 km/h (1 Bft) 0 min
02.09.2014 20:09 22,3 C 15,5 C 14,8 C 87 % 0 % 1022 hPa 0,0 l/m 0,6 km/h (0 Bft) 0 min
02.09.2014 20:12 22,2 C 15,4 C 14,8 C 88 % 0 % 1022 hPa 0,0 l/m 0,6 km/h (0 Bft) 0 min
02.09.2014 20:15 22,3 C 15,4 C 14,9 C 88 % 0 % 1022 hPa 0,0 l/m 0,6 km/h (0 Bft) 0 min
02.09.2014 20:18 22,3 C 15,3 C 15,0 C 88 % 0 % 1022 hPa 0,0 l/m 0,6 km/h (0 Bft) 0 min
02.09.2014 20:21 22,3 C 15,3 C 15,0 C 88 % 0 % 1022 hPa 0,0 l/m 0,3 km/h (0 Bft) 0 min
02.09.2014 20:24 22,3 C 15,3 C 15,0 C 88 % 0 % 1022 hPa 0,0 l/m 0,3 km/h (0 Bft) 0 min
02.09.2014 20:27 22,3 C 15,2 C 14,9 C 88 % 0 % 1022 hPa 0,0 l/m 1,3 km/h (1 Bft) 0 min
02.09.2014 20:30 22,3 C 15,2 C 14,9 C 89 % 0 % 1022 hPa 0,0 l/m 0,6 km/h (0 Bft) 0 min
02.09.2014 20:33 22,3 C 15,2 C 15,0 C 89 % 0 % 1022 hPa 0,0 l/m 0,6 km/h (0 Bft) 0 min
02.09.2014 20:36 22,3 C 15,1 C 15,0 C 89 % 0 % 1022 hPa 0,0 l/m 3,0 km/h (1 Bft) 0 min
02.09.2014 20:39 22,3 C 15,1 C 14,9 C 89 % 0 % 1022 hPa 0,0 l/m 1,1 km/h (1 Bft) 0 min
02.09.2014 20:42 22,3 C 15,1 C 14,9 C 89 % 0 % 1022 hPa 0,0 l/m 1,1 km/h (1 Bft) 0 min
02.09.2014 20:45 22,3 C 15,1 C 14,9 C 89 % 0 % 1022 hPa 0,0 l/m 1,1 km/h (1 Bft) 0 min
02.09.2014 20:48 22,3 C 15,1 C 14,9 C 89 % 0 % 1022 hPa 0,0 l/m 0,1 km/h (0 Bft) 0 min
02.09.2014 20:51 22,3 C 15,1 C 14,9 C 89 % 0 % 1022 hPa 0,0 l/m 0,1 km/h (0 Bft) 0 min
02.09.2014 20:54 22,3 C 15,0 C 14,9 C 90 % 0 % 1022 hPa 0,0 l/m 0,1 km/h (0 Bft) 0 min
02.09.2014 20:57 22,3 C 15,0 C 14,9 C 90 % 0 % 1022 hPa 0,0 l/m 2,2 km/h (1 Bft) 0 min
02.09.2014 21:00 22,3 C 15,0 C 14,8 C 90 % 0 % 1022 hPa 0,0 l/m 0,5 km/h (0 Bft) 0 min
02.09.2014 21:03 22,3 C 15,0 C 14,9 C 90 % 0 % 1022 hPa 0,0 l/m 0,5 km/h (0 Bft) 0 min
02.09.2014 21:06 22,3 C 15,0 C 14,8 C 90 % 0 % 1022 hPa 0,0 l/m 0,5 km/h (0 Bft) 0 min
02.09.2014 21:09 22,3 C 14,9 C 14,8 C 90 % 0 % 1022 hPa 0,0 l/m 3,8 km/h (1 Bft) 0 min
02.09.2014 21:12 22,3 C 14,9 C 14,8 C 90 % 0 % 1022 hPa 0,0 l/m 3,8 km/h (1 Bft) 0 min
02.09.2014 21:15 22,3 C 14,9 C 14,8 C 90 % 0 % 1022 hPa 0,0 l/m 2,4 km/h (1 Bft) 0 min
02.09.2014 21:18 22,3 C 14,9 C 14,8 C 90 % 0 % 1022 hPa 0,0 l/m 0,4 km/h (0 Bft) 0 min
02.09.2014 21:21 22,3 C 14,9 C 14,8 C 90 % 0 % 1022 hPa 0,0 l/m 0,5 km/h (0 Bft) 0 min
02.09.2014 21:24 22,3 C 14,8 C 14,8 C 90 % 0 % 1022 hPa 0,0 l/m 0,5 km/h (0 Bft) 0 min
02.09.2014 21:27 22,3 C 14,8 C 14,8 C 90 % 0 % 1022 hPa 0,0 l/m 0,9 km/h (0 Bft) 0 min
02.09.2014 21:30 22,4 C 14,8 C 14,8 C 90 % 0 % 1022 hPa 0,0 l/m 0,6 km/h (0 Bft) 0 min
02.09.2014 21:33 22,3 C 14,8 C 14,7 C 90 % 0 % 1022 hPa 0,0 l/m 0,6 km/h (0 Bft) 0 min
02.09.2014 21:36 22,3 C 14,8 C 14,7 C 90 % 0 % 1022 hPa 0,0 l/m 0,6 km/h (0 Bft) 0 min
02.09.2014 21:39 22,2 C 14,7 C 14,7 C 91 % 0 % 1022 hPa 0,0 l/m 0,0 km/h (0 Bft) 0 min
02.09.2014 21:42 22,3 C 14,7 C 14,7 C 91 % 0 % 1022 hPa 0,0 l/m 0,3 km/h (0 Bft) 0 min
02.09.2014 21:45 22,3 C 14,7 C 14,7 C 91 % 0 % 1022 hPa 0,0 l/m 0,1 km/h (0 Bft) 0 min
02.09.2014 21:48 22,3 C 14,7 C 14,7 C 91 % 0 % 1022 hPa 0,0 l/m 0,0 km/h (0 Bft) 0 min
02.09.2014 21:51 22,3 C 14,7 C 14,7 C 91 % 0 % 1022 hPa 0,0 l/m 0,0 km/h (0 Bft) 0 min
02.09.2014 21:54 22,2 C 14,7 C 14,8 C 91 % 0 % 1022 hPa 0,0 l/m 0,0 km/h (0 Bft) 0 min
02.09.2014 21:57 22,3 C 14,7 C 14,7 C 91 % 0 % 1022 hPa 0,0 l/m 0,1 km/h (0 Bft) 0 min
02.09.2014 22:00 22,2 C 14,7 C 14,6 C 91 % 0 % 1022 hPa 0,0 l/m 0,0 km/h (0 Bft) 0 min
02.09.2014 22:03 22,2 C 14,7 C 14,7 C 91 % 0 % 1022 hPa 0,0 l/m 0,0 km/h (0 Bft) 0 min
02.09.2014 22:06 22,2 C 14,7 C 14,7 C 91 % 0 % 1022 hPa 0,0 l/m 0,0 km/h (0 Bft) 0 min
02.09.2014 22:09 22,2 C 14,7 C 14,7 C 91 % 0 % 1022 hPa 0,0 l/m 0,7 km/h (0 Bft) 0 min
02.09.2014 22:12 22,3 C 14,7 C 14,8 C 91 % 0 % 1022 hPa 0,0 l/m 0,0 km/h (0 Bft) 0 min
02.09.2014 22:15 22,3 C 14,6 C 14,7 C 91 % 0 % 1022 hPa 0,0 l/m 0,0 km/h (0 Bft) 0 min
02.09.2014 22:18 22,3 C 14,6 C 14,7 C 91 % 0 % 1022 hPa 0,0 l/m 0,3 km/h (0 Bft) 0 min
02.09.2014 22:21 22,2 C 14,6 C 14,7 C 91 % 0 % 1022 hPa 0,0 l/m 0,3 km/h (0 Bft) 0 min
02.09.2014 22:24 22,2 C 14,6 C 14,7 C 91 % 0 % 1022 hPa 0,0 l/m 0,3 km/h (0 Bft) 0 min
02.09.2014 22:27 22,2 C 14,6 C 14,7 C 91 % 0 % 1022 hPa 0,0 l/m 0,1 km/h (0 Bft) 0 min
02.09.2014 22:30 22,2 C 14,5 C 14,7 C 91 % 0 % 1022 hPa 0,0 l/m 0,1 km/h (0 Bft) 0 min
02.09.2014 22:33 22,2 C 14,5 C 14,6 C 92 % 0 % 1022 hPa 0,0 l/m 0,1 km/h (0 Bft) 0 min
02.09.2014 22:36 22,2 C 14,5 C 14,6 C 92 % 0 % 1022 hPa 0,0 l/m 3,3 km/h (1 Bft) 0 min
02.09.2014 22:39 22,2 C 14,5 C 14,6 C 92 % 0 % 1022 hPa 0,0 l/m 0,0 km/h (0 Bft) 0 min
02.09.2014 22:42 22,2 C 14,5 C 14,6 C 91 % 0 % 1022 hPa 0,0 l/m 0,0 km/h (0 Bft) 0 min
02.09.2014 22:45 22,2 C 14,4 C 14,6 C 91 % 0 % 1022 hPa 0,0 l/m 0,0 km/h (0 Bft) 0 min
02.09.2014 22:48 22,2 C 14,5 C 14,6 C 91 % 0 % 1022 hPa 0,0 l/m 0,0 km/h (0 Bft) 0 min
02.09.2014 22:51 22,2 C 14,4 C 14,5 C 91 % 0 % 1022 hPa 0,0 l/m 0,0 km/h (0 Bft) 0 min
02.09.2014 22:54 22,1 C 14,4 C 14,5 C 91 % 0 % 1022 hPa 0,0 l/m 0,0 km/h (0 Bft) 0 min
02.09.2014 22:57 22,1 C 14,4 C 14,5 C 91 % 0 % 1022 hPa 0,0 l/m 0,1 km/h (0 Bft) 0 min
02.09.2014 23:00 22,1 C 14,4 C 14,5 C 91 % 0 % 1022 hPa 0,0 l/m 0,3 km/h (0 Bft) 0 min
02.09.2014 23:03 22,1 C 14,4 C 14,5 C 91 % 0 % 1022 hPa 0,0 l/m 0,3 km/h (0 Bft) 0 min
02.09.2014 23:06 22,1 C 14,4 C 14,5 C 91 % 0 % 1022 hPa 0,0 l/m 0,1 km/h (0 Bft) 0 min
02.09.2014 23:09 22,1 C 14,4 C 14,5 C 91 % 0 % 1022 hPa 0,0 l/m 0,0 km/h (0 Bft) 0 min
02.09.2014 23:12 22,1 C 14,4 C 14,4 C 91 % 0 % 1022 hPa 0,0 l/m 0,0 km/h (0 Bft) 0 min
02.09.2014 23:15 22,1 C 14,4 C 14,4 C 91 % 0 % 1022 hPa 0,0 l/m 0,0 km/h (0 Bft) 0 min
02.09.2014 23:18 22,1 C 14,3 C 14,4 C 91 % 0 % 1022 hPa 0,0 l/m 0,0 km/h (0 Bft) 0 min
02.09.2014 23:21 22,1 C 14,3 C 14,4 C 91 % 0 % 1022 hPa 0,0 l/m 0,0 km/h (0 Bft) 0 min
02.09.2014 23:24 22,1 C 14,3 C 14,4 C 91 % 0 % 1022 hPa 0,0 l/m 0,0 km/h (0 Bft) 0 min
02.09.2014 23:27 22,1 C 14,3 C 14,4 C 91 % 0 % 1022 hPa 0,0 l/m 0,0 km/h (0 Bft) 0 min
02.09.2014 23:30 22,1 C 14,3 C 14,4 C 91 % 0 % 1022 hPa 0,0 l/m 0,0 km/h (0 Bft) 0 min
02.09.2014 23:33 22,1 C 14,3 C 14,4 C 91 % 0 % 1022 hPa 0,0 l/m 0,0 km/h (0 Bft) 0 min
02.09.2014 23:36 22,1 C 14,3 C 14,4 C 91 % 0 % 1022 hPa 0,0 l/m 0,0 km/h (0 Bft) 0 min
02.09.2014 23:39 22,0 C 14,3 C 14,3 C 91 % 0 % 1022 hPa 0,0 l/m 0,0 km/h (0 Bft) 0 min
02.09.2014 23:42 22,1 C 14,3 C 14,3 C 91 % 0 % 1022 hPa 0,0 l/m 0,0 km/h (0 Bft) 0 min
02.09.2014 23:45 22,0 C 14,2 C 14,3 C 91 % 0 % 1022 hPa 0,0 l/m 0,0 km/h (0 Bft) 0 min
02.09.2014 23:48 22,0 C 14,2 C 14,3 C 91 % 0 % 1022 hPa 0,0 l/m 0,0 km/h (0 Bft) 0 min
02.09.2014 23:51 22,0 C 14,2 C 14,2 C 91 % 0 % 1022 hPa 0,0 l/m 0,0 km/h (0 Bft) 0 min
02.09.2014 23:54 22,0 C 14,2 C 14,3 C 91 % 0 % 1022 hPa 0,0 l/m 0,0 km/h (0 Bft) 0 min
02.09.2014 23:57 22,0 C 14,2 C 14,3 C 91 % 0 % 1022 hPa 0,0 l/m 0,0 km/h (0 Bft) 0 min
_ Min-Zeit 08:21 06:54 07:27 15:48 - 02:09 - 01:48 -
Minimum _ 21,5 C 12,3 C 12,6 C 63 % - 1021 hPa - 0,0 km/h (0 Bft) -
_ Max-Zeit 00:00 15:45 15:42 06:54 13:48 00:00 05:24 13:45 12:42
Maximum _ 22,5 C 19,0 C 18,0 C 95 % 100 % 1022 hPa 0,3 l/m 11,6 km/h
NW (2 Bft)
3 min
Durchschnitt _ 22,1 C 14,8 C 14,6 C 87 % #2:48 h 1022 hPa #4,4 l/m 1,9 km/h (1 Bft) #2:48 h